GFSWCAN_prec_precacc24_162.txt.gz
Total_Precipitation_Accumulation
0.05 0.03 0.00 0.00 0.00 0.00 0.00 0.01 0.01 0.01 0.01 0.01 0.01 0.01 0.01 0.02 0.08 0.16 0.06 0.01 0.15 0.23 0.10 0.03 0.02 0.03 0.03 0.03 0.05 0.03 0.08 0.04 0.04 0.07 0.07 0.03 0.05 0.03 0.02 0.01 0.02 0.05 0.05 0.04 0.04 0.10 0.03 0.00 0.00 0.00 0.00 0.00 0.00 0.00
0.02 0.01 0.01 0.00 0.00 0.00 0.00 0.00 0.00 0.01 0.01 0.00 0.00 0.01 0.01 0.01 0.04 0.15 0.11 0.02 0.07 0.29 0.16 0.03 0.02 0.02 0.02 0.02 0.08 0.12 0.14 0.11 0.16 0.17 0.14 0.13 0.09 0.08 0.05 0.04 0.00 0.03 0.02 0.01 0.03 0.03 0.00 0.00 0.00 0.00 0.00 0.00 0.00 0.00
0.02 0.01 0.01 0.01 0.01 0.01 0.00 0.00 0.01 0.00 0.01 0.01 0.01 0.02 0.02 0.02 0.03 0.11 0.10 0.05 0.15 0.26 0.11 0.02 0.01 0.00 0.00 0.00 0.01 0.07 0.08 0.06 0.08 0.09 0.29 0.31 0.29 0.13 0.08 0.03 0.00 0.00 0.00 0.01 0.01 0.00 0.00 0.00 0.00 0.00 0.00 0.00 0.00 0.00
0.04 0.03 0.02 0.02 0.02 0.01 0.01 0.01 0.01 0.01 0.01 0.01 0.02 0.02 0.02 0.01 0.02 0.06 0.09 0.04 0.11 0.29 0.20 0.03 0.00 0.00 0.00 0.00 0.00 0.03 0.08 0.10 0.23 0.34 0.65 0.69 0.49 0.20 0.14 0.04 0.04 0.02 0.03 0.04 0.01 0.00 0.00 0.00 0.00 0.00 0.00 0.00 0.00 0.00
0.03 0.02 0.02 0.02 0.02 0.02 0.02 0.02 0.02 0.02 0.02 0.01 0.01 0.02 0.02 0.03 0.04 0.04 0.01 0.02 0.04 0.17 0.26 0.10 0.01 0.00 0.00 0.00 0.00 0.00 0.01 0.05 0.16 0.47 0.73 0.52 0.24 0.20 0.12 0.15 0.08 0.00 0.00 0.01 0.01 0.01 0.02 0.01 0.00 0.00 0.00 0.00 0.00 0.00
0.02 0.02 0.01 0.01 0.01 0.02 0.02 0.02 0.02 0.03 0.03 0.03 0.03 0.03 0.04 0.04 0.06 0.01 0.01 0.02 0.03 0.19 0.53 0.32 0.03 0.00 0.00 0.00 0.00 0.00 0.00 0.00 0.04 0.32 0.39 0.27 0.11 0.16 0.36 0.19 0.01 0.00 0.00 0.01 0.02 0.01 0.01 0.00 0.00 0.00 0.00 0.00 0.00 0.00
0.03 0.02 0.02 0.01 0.01 0.02 0.02 0.02 0.02 0.03 0.03 0.03 0.03 0.03 0.04 0.05 0.08 0.03 0.02 0.10 0.18 0.40 0.74 0.50 0.10 0.00 0.00 0.00 0.00 0.00 0.00 0.00 0.02 0.14 0.22 0.13 0.06 0.25 0.42 0.25 0.01 0.00 0.00 0.00 0.00 0.01 0.02 0.01 0.01 0.00 0.00 0.00 0.00 0.00
0.01 0.02 0.02 0.02 0.02 0.03 0.03 0.02 0.02 0.02 0.03 0.03 0.02 0.04 0.05 0.05 0.05 0.04 0.00 0.02 0.16 0.31 0.49 0.46 0.19 0.03 0.00 0.00 0.00 0.00 0.02 0.08 0.20 0.27 0.27 0.19 0.14 0.33 0.56 0.12 0.00 0.00 0.00 0.01 0.00 0.00 0.03 0.04 0.01 0.00 0.00 0.00 0.00 0.00
0.01 0.01 0.02 0.01 0.02 0.02 0.03 0.03 0.03 0.03 0.04 0.05 0.09 0.07 0.01 0.01 0.00 0.00 0.00 0.04 0.12 0.26 0.37 0.27 0.09 0.05 0.02 0.00 0.01 0.03 0.09 0.21 0.23 0.35 0.14 0.14 0.28 0.29 0.06 0.00 0.01 0.02 0.04 0.05 0.01 0.00 0.00 0.00 0.00 0.00 0.00 0.00 0.00 0.00
0.02 0.02 0.02 0.02 0.02 0.02 0.02 0.03 0.04 0.04 0.07 0.20 0.13 0.02 0.00 0.01 0.01 0.03 0.04 0.09 0.22 0.34 0.42 0.30 0.08 0.08 0.05 0.04 0.04 0.07 0.16 0.15 0.25 0.10 0.08 0.27 0.14 0.01 0.00 0.01 0.02 0.05 0.08 0.04 0.02 0.01 0.00 0.00 0.00 0.00 0.00 0.00 0.01 0.01
0.03 0.03 0.03 0.03 0.03 0.04 0.05 0.07 0.08 0.17 0.24 0.15 0.07 0.02 0.00 0.02 0.06 0.03 0.04 0.09 0.13 0.27 0.19 0.05 0.01 0.01 0.02 0.06 0.08 0.16 0.21 0.18 0.26 0.04 0.13 0.19 0.06 0.03 0.02 0.06 0.06 0.07 0.06 0.05 0.04 0.02 0.02 0.02 0.01 0.01 0.02 0.02 0.01 0.04
0.05 0.05 0.05 0.04 0.04 0.05 0.07 0.09 0.14 0.35 0.21 0.15 0.16 0.09 0.05 0.05 0.07 0.11 0.11 0.04 0.07 0.04 0.00 0.00 0.04 0.05 0.10 0.13 0.40 0.50 0.53 0.46 0.34 0.24 0.36 0.23 0.07 0.03 0.04 0.04 0.04 0.06 0.08 0.06 0.06 0.05 0.05 0.04 0.05 0.05 0.02 0.01 0.02 0.01
0.08 0.07 0.06 0.06 0.05 0.07 0.08 0.10 0.16 0.29 0.59 0.56 0.71 0.77 0.45 0.25 0.24 0.22 0.09 0.05 0.01 0.01 0.03 0.12 0.15 0.21 0.23 0.35 0.61 0.59 0.53 0.32 0.23 0.31 0.19 0.04 0.02 0.06 0.10 0.07 0.04 0.04 0.06 0.05 0.05 0.06 0.04 0.02 0.01 0.00 0.00 0.00 0.00 0.00
0.14 0.12 0.11 0.10 0.08 0.09 0.12 0.15 0.18 0.55 0.83 1.01 0.80 0.62 0.24 0.10 0.08 0.00 0.00 0.00 0.01 0.02 0.08 0.14 0.14 0.18 0.18 0.37 0.34 0.37 0.25 0.27 0.34 0.25 0.11 0.06 0.05 0.05 0.05 0.02 0.03 0.01 0.01 0.03 0.03 0.02 0.02 0.02 0.01 0.00 0.00 0.00 0.00 0.00
0.29 0.18 0.18 0.14 0.11 0.11 0.16 0.19 0.34 0.86 1.02 1.23 0.85 0.37 0.13 0.01 0.00 0.01 0.01 0.01 0.02 0.05 0.09 0.12 0.15 0.14 0.13 0.24 0.17 0.19 0.17 0.16 0.09 0.03 0.01 0.01 0.01 0.01 0.01 0.01 0.02 0.01 0.00 0.01 0.01 0.01 0.01 0.01 0.01 0.01 0.01 0.01 0.02 0.05
0.35 0.35 0.16 0.12 0.14 0.16 0.24 0.48 0.70 0.93 1.69 1.21 0.78 0.22 0.03 0.01 0.00 0.01 0.01 0.01 0.07 0.06 0.10 0.16 0.29 0.30 0.20 0.28 0.28 0.26 0.30 0.17 0.04 0.02 0.02 0.02 0.01 0.01 0.02 0.01 0.00 0.01 0.00 0.00 0.00 0.01 0.01 0.02 0.02 0.03 0.04 0.03 0.04 0.05
0.52 0.50 0.07 0.08 0.14 0.28 0.51 0.81 0.94 1.18 1.12 0.79 0.31 0.04 0.03 0.02 0.01 0.01 0.03 0.01 0.07 0.14 0.12 0.22 0.36 0.24 0.17 0.17 0.09 0.06 0.05 0.04 0.02 0.01 0.01 0.01 0.01 0.00 0.00 0.00 0.00 0.00 0.00 0.00 0.00 0.00 0.00 0.00 0.00 0.00 0.01 0.01 0.01 0.01
0.58 0.36 0.10 0.16 0.42 0.72 0.85 0.92 1.25 1.16 0.68 0.16 0.03 0.01 0.01 0.01 0.01 0.00 0.00 0.01 0.07 0.07 0.11 0.16 0.22 0.26 0.24 0.14 0.03 0.01 0.03 0.01 0.00 0.01 0.01 0.00 0.00 0.00 0.00 0.00 0.00 0.00 0.00 0.00 0.00 0.00 0.00 0.00 0.00 0.00 0.01 0.00 0.00 0.00
0.30 0.15 0.19 0.32 0.76 1.13 1.16 0.93 0.55 0.54 0.16 0.04 0.02 0.01 0.00 0.00 0.00 0.00 0.00 0.00 0.02 0.06 0.16 0.31 0.41 0.18 0.02 0.00 0.00 0.00 0.00 0.00 0.00 0.00 0.00 0.00 0.00 0.00 0.00 0.00 0.00 0.00 0.00 0.00 0.00 0.00 0.00 0.00 0.00 0.00 0.00 0.00 0.00 0.00
0.48 0.35 0.31 0.51 0.99 1.30 1.43 0.85 0.47 0.23 0.08 0.01 0.00 0.00 0.00 0.00 0.00 0.00 0.00 0.00 0.00 0.05 0.16 0.21 0.06 0.00 0.00 0.00 0.00 0.00 0.00 0.00 0.00 0.00 0.00 0.00 0.00 0.00 0.00 0.00 0.00 0.00 0.00 0.00 0.00 0.00 0.00 0.00 0.00 0.00 0.00 0.00 0.00 0.00
0.82 0.59 0.63 0.94 1.40 1.54 1.23 0.47 0.30 0.16 0.04 0.00 0.00 0.00 0.00 0.00 0.00 0.00 0.00 0.00 0.02 0.05 0.03 0.00 0.00 0.00 0.00 0.00 0.00 0.00 0.00 0.00 0.00 0.00 0.00 0.00 0.00 0.00 0.00 0.00 0.00 0.00 0.00 0.00 0.00 0.00 0.00 0.01 0.02 0.03 0.02 0.02 0.02 0.01
0.34 0.48 0.81 0.90 1.42 1.44 1.17 0.59 0.31 0.14 0.09 0.06 0.01 0.00 0.00 0.00 0.00 0.00 0.00 0.00 0.00 0.00 0.00 0.00 0.00 0.00 0.00 0.00 0.00 0.00 0.00 0.00 0.00 0.00 0.00 0.00 0.00 0.00 0.00 0.00 0.00 0.00 0.00 0.00 0.00 0.00 0.01 0.03 0.07 0.07 0.06 0.06 0.05 0.03
0.52 0.43 0.64 0.65 0.86 0.81 0.64 0.19 0.18 0.14 0.13 0.09 0.03 0.01 0.01 0.00 0.00 0.00 0.00 0.00 0.00 0.00 0.00 0.00 0.00 0.00 0.00 0.00 0.00 0.00 0.00 0.00 0.02 0.03 0.01 0.00 0.00 0.00 0.00 0.00 0.00 0.00 0.00 0.00 0.00 0.01 0.04 0.05 0.06 0.05 0.07 0.10 0.12 0.15
0.95 0.88 0.83 0.89 0.50 0.34 0.22 0.18 0.13 0.07 0.08 0.06 0.04 0.02 0.00 0.00 0.00 0.00 0.00 0.00 0.00 0.00 0.00 0.00 0.00 0.00 0.01 0.01 0.00 0.01 0.01 0.02 0.07 0.06 0.01 0.00 0.01 0.00 0.00 0.00 0.00 0.00 0.00 0.01 0.03 0.02 0.03 0.05 0.07 0.10 0.11 0.15 0.19 0.23
1.57 1.35 0.69 0.55 0.38 0.26 0.14 0.08 0.08 0.05 0.03 0.00 0.01 0.00 0.00 0.00 0.00 0.00 0.00 0.00 0.00 0.00 0.01 0.01 0.03 0.06 0.13 0.12 0.05 0.04 0.03 0.06 0.19 0.19 0.06 0.01 0.06 0.08 0.03 0.00 0.00 0.00 0.02 0.22 0.23 0.11 0.11 0.13 0.21 0.21 0.16 0.16 0.20 0.19
0.94 0.42 0.57 0.22 0.11 0.04 0.03 0.01 0.01 0.00 0.00 0.01 0.00 0.00 0.00 0.00 0.00 0.00 0.00 0.00 0.00 0.00 0.01 0.02 0.04 0.06 0.06 0.07 0.10 0.09 0.06 0.05 0.18 0.29 0.12 0.02 0.05 0.11 0.11 0.06 0.03 0.01 0.04 0.40 0.49 0.33 0.19 0.14 0.22 0.22 0.20 0.14 0.18 0.25
0.41 0.23 0.17 0.06 0.04 0.02 0.02 0.00 0.00 0.00 0.01 0.00 0.00 0.00 0.00 0.04 0.01 0.00 0.00 0.00 0.00 0.00 0.00 0.00 0.00 0.01 0.00 0.01 0.02 0.03 0.05 0.07 0.14 0.16 0.09 0.04 0.03 0.07 0.25 0.44 0.28 0.06 0.12 0.42 0.46 0.36 0.29 0.19 0.20 0.18 0.16 0.14 0.19 0.16
0.06 0.01 0.03 0.02 0.00 0.00 0.00 0.00 0.00 0.00 0.00 0.00 0.00 0.00 0.00 0.00 0.00 0.00 0.00 0.00 0.00 0.00 0.00 0.00 0.00 0.00 0.00 0.03 0.09 0.16 0.14 0.07 0.05 0.03 0.03 0.01 0.03 0.19 0.29 0.31 0.29 0.34 0.41 0.46 0.50 0.40 0.31 0.24 0.18 0.15 0.15 0.17 0.17 0.15
0.08 0.00 0.00 0.01 0.01 0.00 0.00 0.00 0.00 0.00 0.00 0.00 0.00 0.00 0.00 0.00 0.00 0.00 0.00 0.00 0.00 0.00 0.00 0.00 0.00 0.01 0.04 0.06 0.09 0.16 0.26 0.27 0.32 0.17 0.05 0.05 0.07 0.15 0.34 0.35 0.37 0.42 0.44 0.42 0.42 0.44 0.38 0.33 0.27 0.23 0.17 0.16 0.16 0.22
0.01 0.00 0.00 0.00 0.00 0.00 0.00 0.00 0.00 0.00 0.00 0.00 0.00 0.00 0.00 0.00 0.00 0.00 0.00 0.00 0.00 0.00 0.01 0.05 0.12 0.20 0.18 0.14 0.12 0.10 0.26 0.34 0.36 0.39 0.28 0.16 0.15 0.15 0.22 0.28 0.32 0.38 0.44 0.46 0.40 0.38 0.41 0.36 0.31 0.28 0.28 0.25 0.24 0.26
0.00 0.00 0.00 0.00 0.00 0.00 0.00 0.00 0.00 0.00 0.00 0.00 0.00 0.00 0.00 0.00 0.00 0.00 0.00 0.02 0.03 0.09 0.16 0.15 0.14 0.24 0.30 0.16 0.18 0.15 0.12 0.16 0.23 0.28 0.33 0.31 0.24 0.25 0.25 0.27 0.32 0.36 0.38 0.42 0.39 0.36 0.34 0.27 0.20 0.17 0.14 0.11 0.13 0.14
0.00 0.00 0.00 0.00 0.00 0.00 0.00 0.00 0.00 0.00 0.00 0.00 0.00 0.00 0.00 0.00 0.00 0.00 0.01 0.09 0.17 0.22 0.24 0.23 0.17 0.13 0.17 0.18 0.18 0.20 0.19 0.14 0.13 0.16 0.19 0.22 0.20 0.17 0.17 0.18 0.20 0.23 0.28 0.32 0.29 0.27 0.24 0.22 0.18 0.16 0.14 0.16 0.15 0.16
0.00 0.00 0.00 0.00 0.00 0.00 0.00 0.00 0.00 0.00 0.00 0.00 0.00 0.00 0.01 0.05 0.07 0.05 0.09 0.12 0.15 0.12 0.08 0.07 0.07 0.09 0.12 0.13 0.13 0.14 0.14 0.14 0.13 0.14 0.16 0.16 0.16 0.13 0.11 0.08 0.07 0.07 0.12 0.24 0.27 0.20 0.15 0.15 0.13 0.11 0.10 0.11 0.15 0.17

GFSWCAN_prec_precacc24_165.txt.gz
Total_Precipitation_Accumulation
0.15 0.10 0.07 0.05 0.03 0.01 0.00 0.00 0.00 0.00 0.00 0.01 0.01 0.01 0.01 0.00 0.02 0.07 0.03 0.01 0.12 0.19 0.09 0.03 0.02 0.03 0.03 0.03 0.05 0.03 0.08 0.04 0.04 0.07 0.07 0.03 0.05 0.03 0.02 0.01 0.02 0.05 0.05 0.04 0.04 0.11 0.04 0.00 0.00 0.01 0.00 0.00 0.00 0.00
0.05 0.05 0.05 0.03 0.02 0.01 0.00 0.01 0.00 0.01 0.01 0.00 0.00 0.01 0.01 0.01 0.02 0.06 0.04 0.00 0.03 0.17 0.11 0.03 0.01 0.02 0.02 0.02 0.08 0.12 0.14 0.11 0.16 0.17 0.14 0.13 0.09 0.08 0.05 0.04 0.00 0.03 0.02 0.01 0.03 0.03 0.00 0.00 0.00 0.00 0.00 0.00 0.00 0.00
0.04 0.03 0.01 0.01 0.01 0.01 0.00 0.00 0.01 0.00 0.01 0.01 0.01 0.02 0.02 0.01 0.02 0.05 0.05 0.01 0.06 0.10 0.05 0.01 0.00 0.00 0.00 0.00 0.01 0.07 0.08 0.06 0.08 0.09 0.28 0.30 0.29 0.13 0.08 0.03 0.00 0.00 0.00 0.01 0.01 0.00 0.00 0.00 0.00 0.00 0.00 0.00 0.00 0.00
0.07 0.07 0.05 0.03 0.03 0.02 0.02 0.01 0.01 0.01 0.01 0.01 0.02 0.02 0.02 0.01 0.02 0.05 0.04 0.01 0.05 0.09 0.05 0.00 0.00 0.00 0.00 0.00 0.00 0.03 0.08 0.10 0.23 0.34 0.64 0.69 0.49 0.20 0.14 0.04 0.04 0.02 0.03 0.04 0.01 0.00 0.00 0.00 0.00 0.00 0.00 0.00 0.00 0.00
0.05 0.06 0.05 0.03 0.02 0.03 0.03 0.02 0.02 0.02 0.02 0.02 0.02 0.02 0.02 0.03 0.03 0.03 0.00 0.00 0.02 0.04 0.03 0.00 0.00 0.00 0.00 0.00 0.00 0.00 0.01 0.05 0.16 0.43 0.64 0.49 0.24 0.20 0.12 0.15 0.08 0.00 0.00 0.01 0.01 0.01 0.02 0.01 0.00 0.00 0.00 0.00 0.00 0.00
0.02 0.04 0.05 0.04 0.02 0.02 0.02 0.02 0.03 0.03 0.04 0.03 0.04 0.04 0.04 0.04 0.06 0.00 0.00 0.01 0.01 0.14 0.31 0.14 0.00 0.00 0.00 0.00 0.00 0.00 0.00 0.00 0.03 0.27 0.34 0.26 0.11 0.17 0.36 0.18 0.01 0.00 0.00 0.01 0.02 0.01 0.01 0.00 0.00 0.00 0.00 0.00 0.00 0.00
0.03 0.04 0.05 0.04 0.03 0.03 0.02 0.03 0.04 0.04 0.04 0.03 0.03 0.03 0.04 0.05 0.08 0.02 0.00 0.08 0.11 0.18 0.37 0.25 0.01 0.00 0.00 0.00 0.00 0.00 0.00 0.00 0.03 0.13 0.20 0.12 0.06 0.27 0.40 0.23 0.01 0.00 0.00 0.00 0.00 0.01 0.02 0.01 0.01 0.00 0.00 0.00 0.00 0.00
0.02 0.02 0.04 0.04 0.03 0.03 0.03 0.03 0.03 0.03 0.04 0.04 0.03 0.03 0.05 0.05 0.05 0.04 0.00 0.02 0.14 0.16 0.20 0.15 0.03 0.00 0.00 0.00 0.00 0.00 0.02 0.06 0.16 0.21 0.20 0.16 0.12 0.33 0.47 0.10 0.00 0.00 0.00 0.01 0.02 0.03 0.04 0.04 0.01 0.00 0.00 0.00 0.00 0.00
0.04 0.02 0.02 0.03 0.02 0.02 0.03 0.04 0.04 0.04 0.05 0.04 0.08 0.06 0.01 0.01 0.00 0.00 0.00 0.04 0.09 0.16 0.15 0.08 0.01 0.01 0.01 0.00 0.01 0.02 0.05 0.12 0.12 0.20 0.08 0.11 0.18 0.20 0.04 0.00 0.01 0.02 0.04 0.07 0.03 0.01 0.00 0.00 0.00 0.00 0.00 0.00 0.00 0.00
0.05 0.04 0.03 0.04 0.03 0.02 0.03 0.04 0.06 0.06 0.07 0.19 0.12 0.02 0.00 0.00 0.00 0.02 0.03 0.07 0.18 0.28 0.32 0.19 0.02 0.01 0.01 0.00 0.01 0.03 0.09 0.10 0.17 0.06 0.08 0.21 0.10 0.01 0.01 0.02 0.03 0.06 0.09 0.05 0.03 0.02 0.01 0.00 0.00 0.00 0.00 0.00 0.01 0.01
0.06 0.07 0.06 0.06 0.06 0.05 0.05 0.06 0.07 0.17 0.24 0.15 0.06 0.02 0.00 0.02 0.05 0.02 0.03 0.06 0.11 0.26 0.18 0.04 0.01 0.00 0.01 0.03 0.05 0.14 0.16 0.15 0.20 0.02 0.13 0.20 0.08 0.04 0.02 0.06 0.07 0.07 0.07 0.06 0.05 0.03 0.02 0.02 0.01 0.01 0.02 0.02 0.01 0.04
0.08 0.08 0.09 0.07 0.08 0.07 0.06 0.06 0.11 0.32 0.20 0.13 0.11 0.07 0.03 0.04 0.06 0.09 0.09 0.04 0.05 0.03 0.00 0.00 0.04 0.05 0.10 0.14 0.39 0.45 0.49 0.42 0.30 0.21 0.31 0.20 0.07 0.03 0.04 0.04 0.04 0.06 0.08 0.06 0.06 0.05 0.05 0.04 0.05 0.05 0.02 0.01 0.02 0.01
0.16 0.15 0.11 0.10 0.10 0.10 0.09 0.09 0.13 0.25 0.53 0.50 0.64 0.66 0.41 0.24 0.21 0.18 0.07 0.04 0.01 0.00 0.03 0.11 0.14 0.20 0.21 0.33 0.52 0.49 0.47 0.28 0.18 0.23 0.15 0.04 0.02 0.06 0.10 0.07 0.05 0.04 0.06 0.06 0.05 0.06 0.04 0.02 0.01 0.00 0.00 0.00 0.00 0.00
0.21 0.20 0.21 0.18 0.12 0.12 0.12 0.12 0.15 0.49 0.74 0.95 0.70 0.53 0.21 0.10 0.07 0.00 0.00 0.00 0.01 0.00 0.04 0.09 0.12 0.16 0.16 0.29 0.27 0.31 0.20 0.20 0.25 0.17 0.09 0.06 0.05 0.05 0.05 0.02 0.02 0.01 0.01 0.03 0.03 0.02 0.02 0.02 0.01 0.00 0.00 0.00 0.00 0.00
0.29 0.25 0.29 0.24 0.18 0.13 0.14 0.16 0.33 0.76 0.88 1.14 0.75 0.32 0.11 0.01 0.00 0.00 0.00 0.01 0.02 0.05 0.07 0.09 0.12 0.10 0.09 0.18 0.17 0.19 0.16 0.15 0.09 0.03 0.01 0.01 0.01 0.01 0.01 0.01 0.01 0.01 0.00 0.01 0.01 0.01 0.01 0.00 0.00 0.01 0.01 0.01 0.02 0.05
0.35 0.48 0.32 0.23 0.19 0.20 0.25 0.49 0.72 0.78 1.41 1.10 0.70 0.20 0.02 0.00 0.00 0.01 0.01 0.01 0.07 0.06 0.08 0.14 0.28 0.28 0.12 0.15 0.14 0.16 0.21 0.14 0.04 0.01 0.01 0.01 0.01 0.01 0.02 0.01 0.00 0.01 0.00 0.00 0.00 0.00 0.00 0.00 0.00 0.02 0.03 0.03 0.04 0.05
0.50 0.66 0.24 0.20 0.21 0.32 0.55 0.75 0.93 1.11 0.90 0.71 0.30 0.04 0.03 0.02 0.01 0.01 0.02 0.01 0.05 0.09 0.10 0.21 0.37 0.24 0.16 0.14 0.05 0.02 0.01 0.01 0.00 0.00 0.00 0.00 0.01 0.00 0.00 0.00 0.00 0.00 0.00 0.00 0.00 0.00 0.00 0.00 0.00 0.00 0.01 0.01 0.01 0.01
0.54 0.38 0.17 0.27 0.53 0.77 0.93 0.88 1.04 1.03 0.59 0.15 0.03 0.01 0.01 0.01 0.01 0.00 0.00 0.00 0.05 0.05 0.09 0.16 0.22 0.29 0.27 0.14 0.01 0.00 0.00 0.00 0.00 0.00 0.00 0.00 0.00 0.00 0.00 0.00 0.00 0.00 0.00 0.00 0.00 0.00 0.00 0.00 0.00 0.00 0.00 0.00 0.00 0.00
0.29 0.14 0.21 0.46 0.97 1.48 1.45 1.09 0.42 0.40 0.13 0.04 0.02 0.01 0.00 0.00 0.00 0.00 0.00 0.00 0.02 0.05 0.15 0.32 0.42 0.20 0.02 0.00 0.00 0.00 0.00 0.00 0.00 0.00 0.00 0.00 0.00 0.00 0.00 0.00 0.00 0.00 0.00 0.00 0.00 0.00 0.00 0.00 0.00 0.00 0.00 0.00 0.00 0.00
0.45 0.33 0.31 0.55 1.25 1.46 1.45 1.00 0.51 0.21 0.07 0.01 0.00 0.00 0.00 0.00 0.00 0.00 0.00 0.00 0.00 0.03 0.14 0.20 0.07 0.00 0.00 0.00 0.00 0.00 0.00 0.00 0.00 0.00 0.00 0.00 0.00 0.00 0.00 0.00 0.00 0.00 0.00 0.00 0.00 0.00 0.00 0.00 0.00 0.00 0.00 0.00 0.00 0.00
0.80 0.59 0.66 0.95 1.56 1.67 1.29 0.55 0.32 0.16 0.04 0.00 0.00 0.00 0.00 0.00 0.00 0.00 0.00 0.00 0.00 0.04 0.03 0.00 0.00 0.00 0.00 0.00 0.00 0.00 0.00 0.00 0.00 0.00 0.00 0.00 0.00 0.00 0.00 0.00 0.00 0.00 0.00 0.00 0.00 0.00 0.00 0.00 0.00 0.00 0.00 0.01 0.02 0.01
0.33 0.50 0.81 0.93 1.41 1.35 1.11 0.64 0.34 0.14 0.09 0.06 0.01 0.00 0.00 0.00 0.00 0.00 0.00 0.00 0.00 0.00 0.00 0.00 0.00 0.00 0.00 0.00 0.00 0.00 0.00 0.00 0.00 0.00 0.00 0.00 0.00 0.00 0.00 0.00 0.00 0.00 0.00 0.00 0.00 0.00 0.00 0.00 0.00 0.00 0.02 0.05 0.05 0.05
0.50 0.42 0.60 0.56 0.73 0.70 0.55 0.17 0.15 0.12 0.12 0.09 0.03 0.01 0.00 0.00 0.00 0.00 0.00 0.00 0.00 0.00 0.00 0.00 0.00 0.00 0.00 0.00 0.00 0.00 0.00 0.00 0.02 0.03 0.01 0.00 0.00 0.00 0.00 0.00 0.00 0.00 0.01 0.01 0.00 0.01 0.01 0.00 0.01 0.04 0.08 0.11 0.12 0.16
0.77 0.81 0.72 0.75 0.41 0.29 0.19 0.16 0.12 0.06 0.08 0.07 0.04 0.02 0.00 0.00 0.00 0.00 0.00 0.00 0.00 0.00 0.00 0.00 0.00 0.00 0.00 0.00 0.00 0.00 0.00 0.01 0.04 0.05 0.01 0.00 0.03 0.02 0.00 0.00 0.00 0.01 0.01 0.02 0.03 0.03 0.04 0.06 0.09 0.15 0.15 0.16 0.17 0.22
1.41 1.25 0.64 0.50 0.31 0.21 0.11 0.07 0.08 0.05 0.03 0.00 0.01 0.00 0.00 0.00 0.00 0.00 0.00 0.00 0.00 0.00 0.00 0.00 0.00 0.00 0.00 0.01 0.00 0.00 0.00 0.01 0.06 0.11 0.04 0.03 0.15 0.13 0.04 0.00 0.01 0.01 0.05 0.29 0.26 0.14 0.14 0.16 0.22 0.21 0.17 0.16 0.17 0.16
0.75 0.35 0.49 0.18 0.09 0.04 0.02 0.01 0.01 0.00 0.00 0.01 0.00 0.00 0.00 0.00 0.00 0.00 0.00 0.00 0.00 0.00 0.00 0.00 0.00 0.00 0.00 0.00 0.00 0.00 0.00 0.01 0.09 0.15 0.04 0.05 0.12 0.16 0.14 0.07 0.04 0.01 0.06 0.46 0.56 0.38 0.23 0.17 0.25 0.20 0.18 0.13 0.15 0.22
0.32 0.15 0.11 0.04 0.04 0.02 0.02 0.00 0.00 0.00 0.01 0.00 0.00 0.00 0.00 0.04 0.01 0.00 0.00 0.00 0.00 0.00 0.00 0.00 0.00 0.00 0.00 0.00 0.00 0.01 0.01 0.03 0.11 0.13 0.09 0.06 0.06 0.10 0.29 0.47 0.31 0.08 0.13 0.44 0.50 0.42 0.35 0.24 0.24 0.19 0.15 0.10 0.12 0.13
0.05 0.00 0.02 0.01 0.00 0.00 0.00 0.00 0.00 0.00 0.00 0.00 0.00 0.00 0.00 0.00 0.00 0.00 0.00 0.00 0.00 0.00 0.00 0.00 0.00 0.00 0.00 0.03 0.07 0.12 0.10 0.04 0.02 0.02 0.03 0.01 0.06 0.23 0.31 0.34 0.31 0.34 0.41 0.43 0.50 0.44 0.36 0.30 0.23 0.17 0.14 0.12 0.10 0.11
0.06 0.00 0.00 0.01 0.01 0.00 0.00 0.00 0.00 0.00 0.00 0.00 0.00 0.00 0.00 0.00 0.00 0.00 0.00 0.00 0.00 0.00 0.00 0.00 0.00 0.01 0.02 0.03 0.05 0.14 0.25 0.23 0.29 0.16 0.05 0.04 0.07 0.16 0.35 0.36 0.35 0.37 0.42 0.41 0.37 0.47 0.42 0.36 0.30 0.26 0.15 0.10 0.11 0.17
0.01 0.00 0.00 0.00 0.00 0.00 0.00 0.00 0.00 0.00 0.00 0.00 0.00 0.00 0.00 0.00 0.00 0.00 0.00 0.00 0.00 0.00 0.01 0.05 0.11 0.18 0.15 0.12 0.11 0.10 0.25 0.34 0.37 0.41 0.28 0.15 0.14 0.15 0.22 0.29 0.33 0.36 0.43 0.47 0.41 0.35 0.37 0.32 0.26 0.23 0.24 0.21 0.20 0.23
0.00 0.00 0.00 0.00 0.00 0.00 0.00 0.00 0.00 0.00 0.00 0.00 0.00 0.00 0.00 0.00 0.00 0.00 0.00 0.01 0.03 0.08 0.12 0.10 0.10 0.22 0.30 0.16 0.18 0.15 0.12 0.16 0.24 0.31 0.37 0.35 0.28 0.28 0.28 0.30 0.36 0.40 0.43 0.47 0.42 0.38 0.35 0.26 0.18 0.14 0.12 0.09 0.12 0.14
0.00 0.00 0.00 0.00 0.00 0.00 0.00 0.00 0.00 0.00 0.00 0.00 0.00 0.00 0.00 0.00 0.00 0.00 0.01 0.09 0.17 0.21 0.22 0.21 0.16 0.12 0.17 0.18 0.18 0.21 0.20 0.16 0.15 0.17 0.22 0.26 0.23 0.20 0.20 0.22 0.24 0.28 0.33 0.35 0.31 0.29 0.26 0.23 0.18 0.15 0.14 0.15 0.15 0.16
0.00 0.00 0.00 0.00 0.00 0.00 0.00 0.00 0.00 0.00 0.00 0.00 0.00 0.00 0.01 0.04 0.05 0.05 0.09 0.12 0.15 0.12 0.08 0.07 0.07 0.09 0.12 0.13 0.13 0.14 0.14 0.14 0.14 0.16 0.18 0.19 0.19 0.17 0.15 0.11 0.11 0.11 0.14 0.25 0.26 0.20 0.16 0.16 0.14 0.11 0.09 0.11 0.14 0.17

GFSWCAN_prec_precacc24_168.txt.gz
Total_Precipitation_Accumulation
0.25 0.25 0.19 0.13 0.08 0.06 0.04 0.02 0.01 0.00 0.00 0.00 0.00 0.00 0.00 0.00 0.02 0.03 0.02 0.00 0.07 0.10 0.04 0.02 0.02 0.02 0.02 0.03 0.05 0.03 0.08 0.04 0.04 0.07 0.07 0.03 0.05 0.03 0.02 0.01 0.02 0.05 0.05 0.04 0.04 0.13 0.05 0.00 0.00 0.01 0.01 0.00 0.00 0.00
0.06 0.09 0.10 0.10 0.09 0.06 0.04 0.03 0.01 0.01 0.00 0.00 0.00 0.01 0.01 0.01 0.02 0.03 0.02 0.00 0.02 0.08 0.04 0.01 0.01 0.01 0.02 0.02 0.07 0.12 0.14 0.11 0.16 0.17 0.14 0.13 0.09 0.08 0.05 0.04 0.00 0.03 0.02 0.01 0.04 0.03 0.00 0.00 0.00 0.00 0.00 0.00 0.00 0.00
0.06 0.05 0.02 0.02 0.01 0.02 0.02 0.02 0.01 0.00 0.00 0.01 0.01 0.02 0.02 0.01 0.02 0.03 0.02 0.00 0.01 0.02 0.01 0.00 0.00 0.00 0.00 0.00 0.01 0.06 0.07 0.06 0.07 0.09 0.25 0.27 0.27 0.13 0.08 0.03 0.00 0.00 0.00 0.01 0.01 0.00 0.00 0.00 0.00 0.00 0.00 0.00 0.00 0.00
0.08 0.09 0.09 0.07 0.04 0.03 0.02 0.02 0.01 0.01 0.01 0.01 0.02 0.02 0.02 0.01 0.02 0.05 0.03 0.01 0.02 0.02 0.01 0.00 0.00 0.00 0.00 0.00 0.00 0.01 0.03 0.05 0.19 0.31 0.57 0.58 0.44 0.20 0.14 0.04 0.04 0.02 0.03 0.04 0.01 0.00 0.00 0.00 0.00 0.00 0.00 0.00 0.00 0.00
0.05 0.06 0.06 0.08 0.07 0.04 0.04 0.04 0.04 0.02 0.02 0.02 0.01 0.02 0.02 0.03 0.03 0.03 0.00 0.00 0.01 0.02 0.01 0.00 0.00 0.00 0.00 0.00 0.00 0.00 0.00 0.01 0.08 0.26 0.41 0.35 0.21 0.20 0.12 0.11 0.06 0.00 0.00 0.01 0.01 0.01 0.02 0.01 0.00 0.00 0.00 0.00 0.00 0.00
0.03 0.04 0.05 0.06 0.07 0.05 0.03 0.03 0.03 0.04 0.04 0.04 0.04 0.04 0.04 0.04 0.05 0.00 0.00 0.01 0.01 0.08 0.17 0.08 0.00 0.00 0.00 0.00 0.00 0.00 0.00 0.00 0.02 0.12 0.19 0.19 0.10 0.18 0.29 0.11 0.01 0.00 0.00 0.01 0.02 0.01 0.01 0.00 0.00 0.00 0.01 0.00 0.00 0.00
0.04 0.04 0.05 0.06 0.08 0.07 0.04 0.03 0.03 0.04 0.05 0.05 0.05 0.05 0.04 0.06 0.07 0.02 0.00 0.06 0.10 0.12 0.17 0.08 0.00 0.00 0.00 0.00 0.00 0.00 0.00 0.00 0.01 0.08 0.13 0.09 0.05 0.27 0.36 0.18 0.01 0.00 0.00 0.00 0.00 0.01 0.02 0.01 0.01 0.01 0.00 0.00 0.00 0.00
0.03 0.03 0.04 0.04 0.06 0.07 0.06 0.04 0.02 0.02 0.04 0.06 0.04 0.04 0.05 0.05 0.04 0.03 0.00 0.02 0.14 0.16 0.16 0.07 0.00 0.00 0.00 0.00 0.00 0.00 0.01 0.01 0.05 0.10 0.12 0.12 0.11 0.31 0.38 0.08 0.00 0.00 0.00 0.01 0.02 0.04 0.08 0.08 0.03 0.00 0.00 0.00 0.00 0.00
0.05 0.06 0.07 0.05 0.05 0.06 0.05 0.05 0.04 0.05 0.05 0.06 0.09 0.08 0.02 0.01 0.00 0.00 0.00 0.01 0.05 0.13 0.13 0.07 0.01 0.00 0.00 0.00 0.00 0.00 0.02 0.07 0.06 0.09 0.03 0.08 0.11 0.15 0.03 0.00 0.01 0.02 0.04 0.07 0.04 0.02 0.03 0.04 0.00 0.00 0.00 0.00 0.00 0.00
0.06 0.06 0.07 0.08 0.06 0.05 0.05 0.05 0.06 0.07 0.07 0.18 0.12 0.02 0.00 0.00 0.00 0.01 0.02 0.05 0.14 0.25 0.24 0.12 0.01 0.00 0.00 0.00 0.01 0.02 0.06 0.07 0.10 0.03 0.06 0.14 0.05 0.01 0.01 0.02 0.03 0.06 0.09 0.06 0.04 0.03 0.01 0.00 0.00 0.00 0.00 0.00 0.01 0.01
0.06 0.09 0.11 0.13 0.12 0.10 0.07 0.07 0.08 0.16 0.22 0.12 0.06 0.02 0.00 0.01 0.03 0.02 0.03 0.05 0.09 0.23 0.17 0.04 0.00 0.00 0.01 0.03 0.05 0.13 0.14 0.13 0.15 0.02 0.12 0.17 0.08 0.05 0.03 0.07 0.07 0.07 0.07 0.07 0.06 0.03 0.02 0.02 0.01 0.01 0.02 0.02 0.01 0.04
0.09 0.09 0.12 0.15 0.17 0.16 0.11 0.08 0.13 0.26 0.16 0.12 0.08 0.06 0.03 0.02 0.04 0.07 0.08 0.03 0.03 0.02 0.00 0.00 0.04 0.05 0.09 0.13 0.35 0.38 0.42 0.37 0.28 0.20 0.30 0.19 0.07 0.03 0.04 0.04 0.04 0.07 0.09 0.06 0.06 0.05 0.05 0.04 0.05 0.05 0.02 0.01 0.02 0.01
0.16 0.16 0.13 0.16 0.18 0.22 0.16 0.13 0.15 0.21 0.44 0.39 0.50 0.62 0.39 0.20 0.18 0.15 0.06 0.03 0.00 0.00 0.02 0.09 0.11 0.16 0.17 0.28 0.41 0.40 0.42 0.26 0.15 0.18 0.13 0.04 0.02 0.05 0.09 0.07 0.04 0.04 0.06 0.06 0.03 0.04 0.04 0.01 0.01 0.00 0.00 0.00 0.00 0.00
0.21 0.22 0.26 0.24 0.18 0.22 0.18 0.15 0.18 0.40 0.55 0.69 0.56 0.47 0.20 0.10 0.07 0.00 0.00 0.00 0.00 0.00 0.02 0.06 0.08 0.11 0.11 0.20 0.19 0.23 0.14 0.14 0.17 0.12 0.07 0.06 0.05 0.05 0.05 0.02 0.02 0.01 0.01 0.02 0.00 0.00 0.01 0.02 0.01 0.00 0.00 0.00 0.00 0.00
0.30 0.26 0.33 0.32 0.30 0.21 0.22 0.21 0.34 0.61 0.63 0.80 0.57 0.27 0.11 0.01 0.00 0.00 0.00 0.01 0.02 0.03 0.05 0.08 0.11 0.09 0.08 0.15 0.13 0.15 0.13 0.12 0.08 0.03 0.01 0.01 0.01 0.01 0.00 0.00 0.00 0.00 0.00 0.00 0.00 0.00 0.00 0.00 0.00 0.00 0.00 0.00 0.00 0.03
0.39 0.49 0.32 0.28 0.33 0.42 0.40 0.54 0.74 0.67 1.08 0.78 0.53 0.17 0.02 0.00 0.00 0.01 0.01 0.01 0.07 0.05 0.07 0.12 0.25 0.26 0.12 0.14 0.11 0.09 0.08 0.02 0.00 0.00 0.00 0.00 0.00 0.00 0.00 0.00 0.00 0.00 0.00 0.00 0.00 0.00 0.00 0.00 0.00 0.00 0.00 0.00 0.01 0.01
0.50 0.65 0.24 0.21 0.30 0.48 0.73 0.97 1.21 1.13 0.68 0.47 0.19 0.03 0.03 0.02 0.01 0.01 0.02 0.01 0.05 0.08 0.10 0.19 0.33 0.18 0.13 0.12 0.04 0.02 0.01 0.00 0.00 0.00 0.00 0.00 0.00 0.00 0.00 0.00 0.00 0.00 0.00 0.00 0.00 0.00 0.00 0.00 0.00 0.00 0.00 0.00 0.00 0.01
0.51 0.38 0.18 0.31 0.62 1.04 1.37 1.08 0.96 0.96 0.48 0.09 0.02 0.00 0.01 0.01 0.01 0.00 0.00 0.00 0.05 0.05 0.08 0.16 0.20 0.24 0.19 0.08 0.00 0.00 0.00 0.00 0.00 0.00 0.00 0.00 0.00 0.00 0.00 0.00 0.00 0.00 0.00 0.00 0.00 0.00 0.00 0.00 0.00 0.00 0.00 0.00 0.00 0.00
0.29 0.14 0.22 0.53 1.44 2.02 1.90 1.33 0.42 0.35 0.08 0.04 0.02 0.01 0.00 0.00 0.00 0.00 0.00 0.00 0.02 0.05 0.14 0.31 0.39 0.18 0.01 0.00 0.00 0.00 0.00 0.00 0.00 0.00 0.00 0.00 0.00 0.00 0.00 0.00 0.00 0.00 0.00 0.00 0.00 0.00 0.00 0.00 0.00 0.00 0.00 0.00 0.00 0.00
0.43 0.33 0.34 0.60 1.64 1.85 1.60 1.10 0.49 0.17 0.05 0.01 0.00 0.00 0.00 0.00 0.00 0.00 0.00 0.00 0.00 0.03 0.13 0.19 0.07 0.00 0.00 0.00 0.00 0.00 0.00 0.00 0.00 0.00 0.00 0.00 0.00 0.00 0.00 0.00 0.00 0.00 0.00 0.00 0.00 0.00 0.00 0.00 0.00 0.00 0.00 0.00 0.00 0.00
0.74 0.58 0.71 0.91 1.51 1.65 1.31 0.69 0.38 0.16 0.04 0.00 0.00 0.00 0.00 0.00 0.00 0.00 0.00 0.00 0.00 0.04 0.02 0.00 0.00 0.00 0.00 0.00 0.00 0.00 0.00 0.00 0.00 0.00 0.00 0.00 0.00 0.00 0.00 0.00 0.00 0.00 0.00 0.00 0.00 0.00 0.00 0.00 0.00 0.00 0.00 0.00 0.00 0.00
0.31 0.48 0.78 0.89 1.27 1.23 0.99 0.57 0.35 0.16 0.09 0.06 0.01 0.00 0.00 0.00 0.00 0.00 0.00 0.00 0.00 0.00 0.00 0.00 0.00 0.00 0.00 0.00 0.00 0.00 0.00 0.00 0.00 0.00 0.00 0.00 0.00 0.00 0.00 0.00 0.00 0.01 0.01 0.00 0.01 0.01 0.01 0.00 0.01 0.01 0.03 0.02 0.02 0.04
0.47 0.38 0.52 0.50 0.63 0.63 0.54 0.19 0.15 0.11 0.10 0.06 0.02 0.01 0.00 0.00 0.00 0.00 0.00 0.00 0.00 0.00 0.00 0.00 0.00 0.00 0.00 0.00 0.00 0.00 0.00 0.00 0.00 0.00 0.00 0.00 0.00 0.00 0.00 0.01 0.03 0.06 0.07 0.03 0.01 0.03 0.04 0.02 0.03 0.07 0.10 0.09 0.07 0.09
0.80 0.74 0.60 0.58 0.34 0.29 0.20 0.11 0.07 0.04 0.07 0.06 0.04 0.01 0.00 0.00 0.00 0.00 0.00 0.00 0.00 0.00 0.00 0.00 0.00 0.00 0.00 0.00 0.00 0.00 0.00 0.00 0.00 0.00 0.00 0.01 0.06 0.03 0.01 0.03 0.04 0.05 0.06 0.06 0.05 0.05 0.06 0.10 0.13 0.18 0.17 0.18 0.14 0.15
1.32 1.19 0.52 0.44 0.25 0.17 0.10 0.06 0.05 0.04 0.02 0.01 0.01 0.00 0.00 0.00 0.00 0.00 0.00 0.00 0.00 0.00 0.00 0.00 0.00 0.00 0.00 0.00 0.00 0.00 0.00 0.00 0.00 0.02 0.01 0.05 0.18 0.11 0.03 0.01 0.01 0.03 0.08 0.32 0.28 0.16 0.16 0.18 0.26 0.24 0.19 0.19 0.17 0.11
0.62 0.29 0.41 0.15 0.09 0.03 0.02 0.01 0.01 0.00 0.00 0.01 0.00 0.00 0.00 0.00 0.00 0.00 0.00 0.00 0.00 0.00 0.00 0.00 0.00 0.00 0.00 0.00 0.00 0.00 0.00 0.01 0.09 0.13 0.03 0.06 0.14 0.17 0.12 0.06 0.04 0.01 0.06 0.50 0.62 0.42 0.25 0.18 0.28 0.23 0.20 0.14 0.13 0.15
0.25 0.09 0.05 0.03 0.03 0.02 0.02 0.00 0.00 0.00 0.01 0.00 0.00 0.00 0.01 0.04 0.01 0.00 0.00 0.00 0.00 0.00 0.00 0.00 0.00 0.00 0.00 0.00 0.00 0.01 0.01 0.03 0.12 0.14 0.09 0.06 0.06 0.11 0.31 0.49 0.32 0.09 0.14 0.46 0.52 0.45 0.39 0.27 0.27 0.22 0.17 0.10 0.08 0.07
0.04 0.00 0.02 0.01 0.00 0.00 0.00 0.00 0.00 0.00 0.00 0.00 0.00 0.00 0.00 0.00 0.00 0.00 0.00 0.00 0.00 0.00 0.00 0.00 0.00 0.00 0.00 0.03 0.07 0.12 0.10 0.04 0.02 0.01 0.02 0.01 0.06 0.25 0.35 0.37 0.33 0.33 0.41 0.44 0.54 0.48 0.40 0.35 0.27 0.19 0.15 0.11 0.05 0.04
0.04 0.00 0.00 0.01 0.01 0.00 0.00 0.00 0.00 0.00 0.00 0.00 0.00 0.00 0.00 0.00 0.00 0.00 0.00 0.00 0.00 0.00 0.00 0.00 0.00 0.01 0.02 0.02 0.04 0.12 0.22 0.18 0.24 0.15 0.03 0.03 0.06 0.16 0.36 0.38 0.35 0.36 0.42 0.41 0.35 0.49 0.45 0.39 0.33 0.27 0.14 0.08 0.06 0.10
0.00 0.00 0.00 0.00 0.00 0.00 0.00 0.00 0.00 0.00 0.00 0.00 0.00 0.00 0.00 0.00 0.00 0.00 0.00 0.00 0.00 0.00 0.01 0.05 0.11 0.16 0.11 0.07 0.06 0.04 0.18 0.28 0.31 0.38 0.28 0.14 0.13 0.14 0.22 0.30 0.33 0.35 0.42 0.47 0.41 0.34 0.34 0.28 0.21 0.16 0.16 0.14 0.12 0.15
0.00 0.00 0.00 0.00 0.00 0.00 0.00 0.00 0.00 0.00 0.00 0.00 0.00 0.00 0.00 0.00 0.00 0.00 0.00 0.01 0.03 0.07 0.12 0.09 0.07 0.16 0.24 0.11 0.14 0.12 0.09 0.13 0.20 0.28 0.37 0.36 0.29 0.29 0.29 0.31 0.38 0.43 0.44 0.46 0.40 0.36 0.33 0.23 0.16 0.12 0.08 0.05 0.07 0.10
0.00 0.00 0.00 0.00 0.00 0.00 0.00 0.00 0.00 0.00 0.00 0.00 0.00 0.00 0.00 0.00 0.00 0.00 0.01 0.09 0.17 0.21 0.21 0.20 0.14 0.08 0.13 0.14 0.16 0.20 0.20 0.16 0.15 0.18 0.22 0.27 0.24 0.21 0.21 0.26 0.29 0.32 0.35 0.36 0.32 0.29 0.25 0.21 0.15 0.12 0.10 0.10 0.11 0.13
0.01 0.00 0.00 0.00 0.00 0.00 0.00 0.00 0.00 0.00 0.00 0.00 0.00 0.00 0.01 0.04 0.04 0.05 0.09 0.12 0.14 0.10 0.06 0.06 0.06 0.08 0.09 0.10 0.12 0.13 0.14 0.14 0.14 0.16 0.18 0.20 0.22 0.20 0.19 0.15 0.14 0.13 0.15 0.24 0.24 0.20 0.17 0.17 0.13 0.09 0.08 0.10 0.13 0.16

GFSWCAN_prec_precacc24_174.txt.gz
Total_Precipitation_Accumulation
0.26 0.29 0.31 0.35 0.42 0.42 0.33 0.21 0.13 0.06 0.02 0.00 0.00 0.00 0.00 0.00 0.01 0.00 0.00 0.00 0.01 0.02 0.00 0.00 0.01 0.01 0.01 0.01 0.02 0.01 0.02 0.01 0.02 0.04 0.05 0.02 0.05 0.03 0.02 0.01 0.02 0.05 0.05 0.04 0.05 0.16 0.08 0.00 0.00 0.01 0.01 0.00 0.00 0.00
0.08 0.11 0.13 0.16 0.23 0.30 0.29 0.23 0.16 0.10 0.05 0.01 0.00 0.00 0.00 0.00 0.01 0.02 0.00 0.00 0.01 0.03 0.00 0.00 0.00 0.00 0.00 0.01 0.03 0.04 0.03 0.02 0.05 0.06 0.05 0.06 0.05 0.05 0.03 0.03 0.00 0.03 0.02 0.01 0.04 0.03 0.00 0.00 0.00 0.00 0.00 0.00 0.00 0.00
0.09 0.09 0.09 0.06 0.04 0.06 0.08 0.11 0.13 0.10 0.05 0.03 0.02 0.02 0.01 0.00 0.01 0.01 0.01 0.00 0.00 0.00 0.00 0.00 0.00 0.00 0.00 0.00 0.00 0.01 0.00 0.00 0.01 0.02 0.06 0.07 0.09 0.05 0.03 0.01 0.00 0.00 0.00 0.00 0.00 0.00 0.00 0.00 0.00 0.00 0.00 0.00 0.00 0.00
0.09 0.09 0.10 0.12 0.13 0.10 0.05 0.03 0.03 0.01 0.01 0.01 0.01 0.01 0.01 0.00 0.01 0.02 0.02 0.01 0.01 0.01 0.01 0.00 0.00 0.00 0.00 0.00 0.00 0.00 0.00 0.00 0.03 0.08 0.17 0.23 0.23 0.12 0.08 0.03 0.04 0.02 0.02 0.01 0.01 0.00 0.00 0.00 0.00 0.00 0.00 0.00 0.00 0.00
0.05 0.07 0.07 0.08 0.09 0.12 0.13 0.10 0.08 0.03 0.02 0.01 0.01 0.02 0.02 0.02 0.02 0.01 0.00 0.00 0.01 0.02 0.01 0.00 0.00 0.00 0.00 0.00 0.00 0.00 0.00 0.00 0.02 0.05 0.07 0.07 0.06 0.10 0.04 0.04 0.02 0.00 0.00 0.01 0.01 0.01 0.02 0.01 0.00 0.00 0.00 0.00 0.00 0.00
0.04 0.04 0.06 0.07 0.08 0.09 0.10 0.11 0.09 0.07 0.04 0.04 0.04 0.03 0.03 0.05 0.04 0.00 0.00 0.01 0.00 0.04 0.06 0.03 0.00 0.00 0.00 0.00 0.00 0.00 0.00 0.00 0.00 0.02 0.03 0.04 0.03 0.12 0.16 0.04 0.00 0.00 0.00 0.01 0.02 0.01 0.01 0.00 0.00 0.00 0.01 0.01 0.00 0.00
0.04 0.04 0.06 0.08 0.09 0.10 0.10 0.13 0.12 0.08 0.07 0.05 0.05 0.06 0.07 0.08 0.05 0.02 0.01 0.04 0.07 0.10 0.13 0.06 0.00 0.00 0.00 0.00 0.00 0.00 0.00 0.00 0.00 0.02 0.03 0.02 0.01 0.18 0.15 0.08 0.00 0.00 0.00 0.00 0.00 0.01 0.03 0.02 0.02 0.01 0.01 0.00 0.00 0.00
0.03 0.03 0.04 0.05 0.07 0.10 0.11 0.13 0.15 0.15 0.10 0.07 0.06 0.07 0.07 0.05 0.02 0.02 0.00 0.03 0.14 0.14 0.15 0.07 0.00 0.00 0.00 0.00 0.00 0.00 0.01 0.00 0.01 0.02 0.01 0.02 0.03 0.18 0.17 0.03 0.00 0.00 0.00 0.01 0.03 0.06 0.11 0.09 0.06 0.02 0.00 0.00 0.00 0.00
0.05 0.06 0.06 0.07 0.08 0.09 0.11 0.09 0.09 0.11 0.12 0.09 0.09 0.06 0.02 0.00 0.00 0.00 0.00 0.00 0.04 0.12 0.11 0.07 0.01 0.00 0.00 0.00 0.00 0.00 0.01 0.02 0.01 0.02 0.01 0.05 0.02 0.05 0.01 0.00 0.01 0.02 0.05 0.08 0.04 0.02 0.03 0.04 0.01 0.00 0.00 0.00 0.00 0.00
0.06 0.06 0.07 0.08 0.10 0.11 0.13 0.12 0.09 0.07 0.16 0.20 0.07 0.01 0.00 0.00 0.00 0.00 0.01 0.02 0.09 0.17 0.12 0.02 0.00 0.00 0.00 0.00 0.01 0.02 0.03 0.03 0.03 0.01 0.04 0.07 0.01 0.00 0.01 0.02 0.04 0.06 0.09 0.06 0.04 0.03 0.01 0.00 0.00 0.00 0.00 0.00 0.00 0.00
0.06 0.09 0.11 0.12 0.13 0.15 0.16 0.20 0.17 0.17 0.23 0.10 0.02 0.01 0.00 0.01 0.03 0.02 0.02 0.05 0.07 0.15 0.10 0.01 0.00 0.00 0.01 0.02 0.03 0.09 0.10 0.09 0.11 0.01 0.11 0.16 0.07 0.04 0.03 0.06 0.06 0.06 0.06 0.06 0.05 0.01 0.00 0.00 0.00 0.00 0.00 0.00 0.00 0.00
0.09 0.09 0.12 0.14 0.16 0.20 0.24 0.23 0.40 0.46 0.08 0.05 0.04 0.03 0.02 0.02 0.03 0.04 0.06 0.04 0.03 0.01 0.00 0.00 0.03 0.04 0.07 0.09 0.24 0.29 0.35 0.31 0.24 0.17 0.22 0.13 0.03 0.01 0.03 0.02 0.02 0.03 0.04 0.01 0.01 0.01 0.02 0.02 0.01 0.01 0.00 0.00 0.00 0.00
0.17 0.16 0.12 0.14 0.17 0.23 0.26 0.31 0.51 0.58 0.31 0.19 0.24 0.30 0.25 0.16 0.14 0.09 0.03 0.02 0.00 0.00 0.01 0.05 0.07 0.09 0.11 0.17 0.21 0.18 0.16 0.10 0.06 0.07 0.09 0.03 0.01 0.04 0.06 0.04 0.02 0.01 0.02 0.02 0.01 0.01 0.01 0.00 0.00 0.00 0.00 0.00 0.00 0.00
0.22 0.22 0.23 0.21 0.17 0.24 0.27 0.36 0.75 0.83 0.54 0.37 0.28 0.23 0.07 0.04 0.04 0.00 0.00 0.00 0.00 0.00 0.02 0.03 0.04 0.07 0.07 0.14 0.13 0.14 0.06 0.06 0.05 0.02 0.00 0.00 0.00 0.01 0.02 0.01 0.01 0.00 0.01 0.02 0.00 0.00 0.00 0.00 0.00 0.00 0.00 0.00 0.00 0.00
0.29 0.24 0.30 0.31 0.29 0.23 0.34 0.52 0.91 0.83 0.50 0.42 0.27 0.14 0.07 0.01 0.00 0.00 0.00 0.00 0.02 0.03 0.04 0.06 0.08 0.07 0.06 0.12 0.10 0.12 0.09 0.06 0.02 0.00 0.00 0.00 0.00 0.00 0.00 0.00 0.00 0.00 0.00 0.00 0.00 0.00 0.00 0.00 0.00 0.00 0.00 0.00 0.00 0.00
0.41 0.49 0.31 0.26 0.31 0.42 0.50 0.94 1.41 1.02 0.75 0.42 0.26 0.09 0.01 0.00 0.00 0.01 0.01 0.01 0.05 0.04 0.05 0.09 0.21 0.21 0.11 0.11 0.10 0.08 0.06 0.01 0.00 0.00 0.00 0.00 0.00 0.00 0.00 0.00 0.00 0.00 0.00 0.00 0.00 0.00 0.00 0.00 0.00 0.00 0.00 0.00 0.00 0.00
0.52 0.63 0.25 0.21 0.29 0.49 0.86 1.58 2.48 1.60 0.56 0.22 0.07 0.02 0.02 0.02 0.01 0.01 0.02 0.01 0.04 0.06 0.09 0.16 0.25 0.15 0.10 0.09 0.03 0.01 0.00 0.00 0.00 0.00 0.00 0.00 0.00 0.00 0.00 0.00 0.00 0.00 0.00 0.00 0.00 0.00 0.00 0.00 0.00 0.00 0.00 0.00 0.00 0.00
0.52 0.37 0.17 0.27 0.53 0.99 1.77 1.94 1.65 1.09 0.38 0.04 0.00 0.00 0.00 0.01 0.01 0.00 0.00 0.00 0.04 0.04 0.07 0.11 0.14 0.16 0.15 0.07 0.00 0.00 0.00 0.00 0.00 0.00 0.00 0.00 0.00 0.00 0.00 0.00 0.00 0.00 0.00 0.00 0.00 0.00 0.00 0.00 0.01 0.00 0.00 0.00 0.00 0.00
0.37 0.15 0.27 0.51 1.48 1.97 2.19 1.98 1.01 0.54 0.06 0.01 0.00 0.00 0.00 0.00 0.00 0.00 0.00 0.00 0.01 0.04 0.11 0.18 0.24 0.10 0.01 0.00 0.00 0.00 0.00 0.00 0.00 0.00 0.00 0.00 0.00 0.00 0.00 0.00 0.00 0.00 0.00 0.00 0.00 0.00 0.00 0.00 0.00 0.01 0.01 0.02 0.02 0.01
0.49 0.38 0.35 0.57 1.74 2.32 1.61 1.33 0.79 0.26 0.05 0.01 0.00 0.00 0.00 0.00 0.00 0.00 0.00 0.00 0.00 0.03 0.09 0.11 0.04 0.00 0.00 0.00 0.00 0.00 0.00 0.00 0.00 0.00 0.00 0.00 0.00 0.00 0.00 0.00 0.00 0.00 0.00 0.00 0.00 0.00 0.01 0.03 0.02 0.02 0.02 0.02 0.06 0.06
0.74 0.62 0.62 0.75 1.33 1.54 1.28 0.79 0.47 0.21 0.02 0.00 0.00 0.00 0.00 0.00 0.00 0.00 0.00 0.00 0.00 0.03 0.01 0.00 0.00 0.00 0.00 0.00 0.00 0.00 0.00 0.00 0.00 0.00 0.00 0.00 0.00 0.00 0.00 0.00 0.00 0.00 0.01 0.02 0.04 0.04 0.03 0.03 0.02 0.02 0.03 0.03 0.02 0.04
0.29 0.43 0.68 0.78 0.94 0.90 0.77 0.51 0.35 0.16 0.06 0.04 0.00 0.00 0.00 0.00 0.00 0.00 0.00 0.00 0.00 0.00 0.00 0.00 0.00 0.00 0.00 0.00 0.00 0.00 0.00 0.00 0.00 0.00 0.00 0.00 0.00 0.00 0.00 0.00 0.01 0.08 0.06 0.06 0.08 0.08 0.04 0.02 0.05 0.07 0.07 0.05 0.05 0.07
0.34 0.27 0.31 0.32 0.39 0.42 0.44 0.18 0.13 0.11 0.09 0.08 0.02 0.00 0.00 0.00 0.00 0.00 0.00 0.00 0.00 0.00 0.00 0.00 0.00 0.00 0.00 0.00 0.00 0.00 0.00 0.00 0.00 0.00 0.00 0.00 0.00 0.00 0.00 0.02 0.07 0.19 0.16 0.06 0.02 0.05 0.06 0.05 0.07 0.13 0.14 0.11 0.09 0.10
0.51 0.38 0.32 0.30 0.19 0.20 0.16 0.09 0.06 0.03 0.04 0.03 0.02 0.00 0.00 0.00 0.00 0.00 0.00 0.00 0.00 0.00 0.00 0.00 0.00 0.00 0.00 0.00 0.00 0.00 0.00 0.00 0.00 0.00 0.00 0.01 0.06 0.04 0.02 0.05 0.08 0.09 0.11 0.09 0.04 0.05 0.08 0.16 0.19 0.24 0.20 0.23 0.16 0.16
1.19 0.96 0.30 0.26 0.13 0.09 0.06 0.04 0.04 0.03 0.01 0.01 0.01 0.00 0.00 0.00 0.00 0.00 0.00 0.00 0.00 0.00 0.00 0.00 0.00 0.00 0.00 0.00 0.00 0.00 0.00 0.00 0.00 0.02 0.01 0.05 0.21 0.15 0.03 0.00 0.01 0.03 0.11 0.27 0.18 0.13 0.16 0.24 0.31 0.28 0.23 0.24 0.21 0.14
0.41 0.23 0.21 0.05 0.04 0.02 0.01 0.01 0.01 0.00 0.00 0.01 0.00 0.00 0.00 0.00 0.00 0.00 0.00 0.00 0.00 0.00 0.00 0.00 0.00 0.00 0.00 0.00 0.00 0.00 0.00 0.01 0.09 0.13 0.03 0.07 0.17 0.25 0.16 0.05 0.02 0.01 0.05 0.41 0.58 0.43 0.27 0.22 0.31 0.27 0.22 0.16 0.16 0.18
0.15 0.03 0.01 0.00 0.00 0.00 0.00 0.00 0.00 0.00 0.01 0.00 0.00 0.01 0.01 0.03 0.01 0.00 0.00 0.00 0.00 0.00 0.00 0.00 0.00 0.00 0.00 0.00 0.00 0.01 0.01 0.03 0.12 0.15 0.09 0.06 0.08 0.18 0.34 0.40 0.30 0.11 0.17 0.41 0.48 0.45 0.43 0.29 0.27 0.23 0.19 0.12 0.09 0.10
0.02 0.00 0.01 0.01 0.00 0.00 0.00 0.00 0.00 0.00 0.00 0.00 0.00 0.00 0.00 0.00 0.00 0.00 0.00 0.00 0.00 0.00 0.00 0.00 0.00 0.00 0.00 0.03 0.07 0.12 0.11 0.04 0.01 0.00 0.01 0.01 0.08 0.29 0.35 0.37 0.37 0.39 0.46 0.46 0.57 0.50 0.43 0.40 0.31 0.23 0.19 0.13 0.05 0.05
0.00 0.00 0.00 0.01 0.00 0.00 0.00 0.00 0.00 0.00 0.00 0.00 0.00 0.00 0.00 0.00 0.00 0.00 0.00 0.00 0.00 0.00 0.00 0.00 0.00 0.01 0.02 0.02 0.04 0.13 0.21 0.12 0.11 0.06 0.01 0.01 0.03 0.14 0.32 0.35 0.35 0.35 0.39 0.38 0.31 0.48 0.49 0.44 0.36 0.29 0.16 0.10 0.04 0.05
0.00 0.00 0.00 0.00 0.00 0.00 0.00 0.00 0.00 0.00 0.00 0.00 0.00 0.00 0.00 0.00 0.00 0.00 0.00 0.00 0.00 0.00 0.01 0.05 0.11 0.16 0.10 0.05 0.04 0.03 0.11 0.15 0.19 0.25 0.21 0.09 0.08 0.10 0.19 0.28 0.30 0.31 0.36 0.41 0.35 0.26 0.24 0.25 0.17 0.12 0.10 0.06 0.04 0.05
0.00 0.00 0.00 0.00 0.00 0.00 0.00 0.00 0.00 0.00 0.00 0.00 0.00 0.00 0.00 0.00 0.00 0.00 0.00 0.00 0.02 0.06 0.09 0.07 0.06 0.13 0.16 0.07 0.08 0.06 0.03 0.03 0.09 0.16 0.24 0.26 0.22 0.24 0.25 0.28 0.35 0.38 0.37 0.37 0.32 0.30 0.27 0.18 0.12 0.08 0.05 0.03 0.04 0.06
0.00 0.00 0.00 0.00 0.00 0.00 0.00 0.00 0.00 0.00 0.00 0.00 0.00 0.00 0.00 0.00 0.00 0.00 0.01 0.04 0.07 0.10 0.10 0.10 0.07 0.04 0.07 0.10 0.11 0.14 0.14 0.11 0.11 0.13 0.17 0.23 0.22 0.20 0.23 0.30 0.29 0.26 0.27 0.29 0.25 0.24 0.20 0.16 0.10 0.06 0.05 0.05 0.06 0.07
0.01 0.00 0.00 0.00 0.00 0.00 0.00 0.00 0.00 0.00 0.00 0.00 0.00 0.00 0.00 0.00 0.00 0.01 0.03 0.04 0.07 0.04 0.02 0.02 0.02 0.02 0.03 0.04 0.06 0.07 0.09 0.11 0.12 0.15 0.17 0.19 0.22 0.24 0.27 0.20 0.17 0.14 0.12 0.17 0.18 0.17 0.16 0.14 0.09 0.06 0.06 0.07 0.07 0.08